Regional Weather Roundup
Issued by NWS

Home | Current Version | Previous Version | Graphics & Text | Print | Product List | Glossary On
Versions: 1 2 3 4 5 6 7 8 9 10 11 12 13 14 15 16 17 18 19 20 21 22 23 24 25 26 27 28 29 30 31 32 33 34 35 36 37 38 39 40 41 42 43 44 45 46 47 48 49 50
000
ASUS45 KBOU 060707
RWRCO

WEATHER ROUNDUP FOR COLORADO
NATIONAL WEATHER SERVICE DENVER/BOULDER CO
1200 AM MST FRI MAR 06 2015

NOTE: "FAIR" INDICATES FEW OR NO CLOUDS BELOW 12000 FEET WITH NO
SIGNIFICANT WEATHER AND/OR OBSTRUCTIONS TO VISIBILITY.

COZ001>005-013-030-031-060800-
...NORTHWEST COLORADO...

CITY           SKY/WX    TMP DP  RH WIND       PRES   REMARKS
CRAIG          CLEAR     16  11  80 CALM      30.40S
HAYDEN         CLEAR     16   9  73 E10       30.38S WCI   3
MEEKER         CLEAR     26  16  65 NE7       30.40S WCI  18
MOUNT WERNER   NOT AVBL
STEAMBOAT SPGS CLEAR     16  10  76 CALM      30.40S
WALDEN         MOCLDY    18   9  68 SE6       30.33S WCI   9
$$

COZ006>008-011-060800-
...WEST CENTRAL VALLEYS...

CITY           SKY/WX    TMP DP  RH WIND       PRES   REMARKS
GRAND JUNCTION CLEAR     29  19  66 E5        30.42S WCI  24
MONTROSE       CLEAR     27  18  69 SE7       30.44F WCI  19
EAGLE          CLEAR     21  16  79 E5        30.44S WCI  15
RIFLE          CLEAR     27  19  72 CALM      30.44R
DELTA          CLEAR     30  22  70 E7        30.44F WCI  23
NUCLA          CLEAR     28  18  64 E5        30.45S WCI  23
$$

COZ017>023-064>068-060800-
...SOUTHWEST COLORADO...

CITY           SKY/WX    TMP DP  RH WIND       PRES   REMARKS
DURANGO        CLEAR     24  15  68 N3        30.39S
CORTEZ         CLEAR     24  19  81 NE6       30.40F WCI  17
PAGOSA SPRINGS CLEAR     12   6  78 CALM      30.39F
TELLURIDE      CLEAR     19   7  59 SE7       30.42S WCI  10
WOLF CREEK PAS PTCLDY    18 -11  27 N5        30.42S WCI  11
$$

COZ009-010-012-014-032>034-037-058>063-060800-
...CENTRAL COLORADO...

CITY           SKY/WX    TMP DP  RH WIND       PRES   REMARKS
ASPEN          CLEAR     14   6  70 SW7       30.39F WCI   4
BUENA VISTA    PTCLDY    22   7  52 CALM      30.35R
COPPER MTN     PTCLDY    16  -4  41 W16G22    30.34F WCI   0
BERTHOUD PASS  NOT AVBL
COTTONWOOD PAS PTCLDY    27  -6  24 W5        30.33S WCI  21
GUNNISON       PTCLDY     9  -8  47 NE5       30.46S WCI   0
KREMMLING      PTCLDY    12   7  79 CALM      30.41S
LEADVILLE      CLEAR      3  -5  69 CALM      30.34F
SALIDA         PTCLDY    29  10  45 N6        30.41S WCI  23
SUNLIGHT       CLEAR     18  12  79 CALM        N/A
WILKERSON PASS PTCLDY    19  -4  35 W7        30.33S WCI  10
$$

COZ069>075-060800-
...SAN LUIS VALLEY/SANGRE DE CRISTO MOUNTAINS...

CITY           SKY/WX    TMP DP  RH WIND       PRES   REMARKS
ALAMOSA        PTCLDY    17  12  80 W5        30.39R WCI  10
LA VETA PASS   PTCLDY    18   5  57 MISG      30.32S
SAGUACHE       CLEAR     25  12  58 NW10      30.39S WCI  15
$$

COZ035-036-038>040-060800-
...NORTHERN COLORADO FRONT RANGE...

CITY           SKY/WX    TMP DP  RH WIND       PRES   REMARKS
DENVER INTL AP MOCLDY    25  14  63 S10       30.23F WCI  15
DMNS CITY PARK   N/A     26  19  73 S6        30.24F WCI  19
AURORA         PTCLDY    25  16  68 S12       30.24F WCI  15
FRONT RANGE AP CLEAR     25  18  74 S15       30.25S WCI  12
ERIE MUNI ARPT CLEAR     16  13  86 CALM      30.24S
BOULDER MUN AP CLEAR     28  14  54 CALM      30.22F
CENTENNIAL     PTCLDY    26  13  57 S10       30.24F WCI  16
BROOMFIELD     CLEAR     30  18  59 CALM      30.23F
FORT COLLINS   PTCLDY    27  16  63 N6        30.26S WCI  20
LONGMONT       PTCLDY    19  12  74 NW3       30.25F
$$

COZ041-046-047-076>085-087-088-060800-
...PIKES PEAK/PALMER DIVIDE AND SOUTHERN FOOTHILLS...

CITY           SKY/WX    TMP DP  RH WIND       PRES   REMARKS
COLO. SPRINGS  PTCLDY    21  13  71 N7        30.27F WCI  12
A. F. ACADEMY  CLEAR     15   8  75 N10       30.26F WCI   2
ELLICOTT       NOT AVBL
FALCON         PTCLDY    22  11  62 W8        30.27F WCI  12
FORT CARSON    CLEAR     22  13  70 NW8       30.26S WCI  12
LIMON          CLEAR      6   3  87 N6        30.27F WCI  -4
MONUMENT HILL  PTCLDY    23   7  50 SW10      30.25S WCI  12
TRINIDAD       CLEAR     28  21  75 W13       30.28F WCI  17
$$

COZ042>045-048>051-090-091-060800-
...NORTHEAST COLORADO...

CITY           SKY/WX    TMP DP  RH WIND       PRES   REMARKS
GREELEY ARPT   PTCLDY    21  10  63 CALM      30.25S
AKRON          CLEAR     28  17  63 SW14      30.24F WCI  17
BURLINGTON     CLEAR     26  20  77 W10       30.27F WCI  16
WRAY           CLEAR     24  20  82 W5        30.26S WCI  19
STERLING       CLEAR     21  19  93 S5        30.25S WCI  15
HOLYOKE        CLEAR     30  21  69 W10       30.24S WCI  21
FORT MORGAN    CLEAR     24  19  80 W10       30.26S WCI  13
$$

COZ086-089-092>099-060800-
...SOUTHEAST COLORADO...

CITY           SKY/WX    TMP DP  RH WIND       PRES   REMARKS
PUEBLO         CLEAR     25  21  85 W6        30.29S WCI  18
LA JUNTA       CLEAR     28  22  78 W13       30.29S WCI  17
LAMAR          CLEAR     26  21  81 CALM      30.27S
SPRINGFIELD      N/A     27  22  81 W8        30.25F WCI  19
$$



USA.gov is the U.S. government's official web portal to all federal, state and local government web resources and services.